sat.trackr.live / text

‹ back to catalog

YAOGAN-29

NORAD 41038 · 2015-069A

PAYLOAD ACTIVE UNKNOWN

§ Identity

Operator
Country
PRC
Launch date
2015-11-26
Launch site
TAISC
Launch vehicle
Mass (kg)
RCS (m²)
5.03

Purposes: earth_obs

External: N2YO · Heavens-Above · Gunter

§ Orbital elements

Epoch: 2026-05-25T04:06:17.580384Z

Period
97.10 min
Inclination
98.0044°
Eccentricity
0.0002994
Mean motion
14.83063374 rev/d
Perigee alt
617.6 km
Apogee alt
621.8 km
Semi-major
6,997.8 km
B*
9.0066e-5
RAAN
173.7672°
Arg perigee
93.0858°
Mean anomaly
267.0698°
Rev number
56,721

§ Raw data

YAOGAN-291 41038U 15069A   26145.17103681  .00000679  00000+0  90066-4 0  99982 41038  98.0044 173.7672 0002994  93.0858 267.0698 14.83063374567211

JSON: /api/v1/satellites/41038 · /tle

For live sub-satellite position, see the globe view (requires WebGL).

§ Visibility from observer

Set your observer location to see the next 7 days of passes ≥ 10°. The values pass through the URL so the page stays shareable.

No JS? Fill the form by hand. The geolocation button needs JavaScript.